This demonstration page uses our WeatherBlox Daily Observations layout. Learn more.

Left ArrowRight Arrow

34.02893, -84.19858

Hourly Observations for June 22, 2022

Temp ( °F °C ) Dew Point ( °F °C ) Humidity (%) Winds ( mph kmh ) Pressure ( in mb ) Visibility ( mi km ) Precip ( " mm )
12:53 am 00:53 Clear 73 22.8 61 16.1 66 66 Calm 30.09 1019 10 16 0.00 0.00
1:53 am 01:53 Clear 71 21.7 62 16.7 73 73 SSW 3 6 30.08 1019 10 16 0.00 0.00
2:53 am 02:53 Clear 66 18.9 62 16.7 87 87 Calm 30.06 1018 10 16 0.00 0.00
3:53 am 03:53 Clear 67 19.4 61 16.1 81 81 Calm 30.05 1018 10 16 0.00 0.00
4:53 am 04:53 Clear 65 18.3 62 16.7 90 90 Calm 30.06 1018 10 16 0.00 0.00
5:53 am 05:53 Clear 62 16.7 59 15 90 90 Calm 30.06 1018 10 16 0.00 0.00
6:53 am 06:53 Sunny 63 17.2 61 16.1 93 93 Calm 30.06 1018 10 16 0.00 0.00
7:53 am 07:53 Sunny 71 21.7 64 17.8 79 79 Calm 30.06 1018 10 16 0.00 0.00
8:53 am 08:53 Sunny 83 28.3 60 15.6 46 46 NNW 8 13 30.05 1018 10 16 0.00 0.00
9:53 am 09:53 Sunny 86 30 62 16.7 45 45 NNW 10 17 30.04 1017 10 16 0.00 0.00
10:53 am 10:53 Sunny 89 31.7 65 18.3 45 45 NW 10 17 30.04 1017 10 16 0.00 0.00
11:53 am 11:53 Sunny 93 33.9 65 18.3 40 40 N 13 20 30.02 1017 10 16 0.00 0.00
12:53 pm 12:53 Sunny 95 35 66 18.9 39 39 NNW 5 7 30.01 1016 10 16 0.00 0.00
1:53 pm 13:53 Sunny 97 36.1 65 18.3 35 35 NW 7 11 29.99 1016 10 16 0.00 0.00
2:53 pm 14:53 Sunny 97 36.1 63 17.2 33 33 NW 12 19 29.97 1015 10 16 0.00 0.00
3:53 pm 15:53 Sunny 98 36.7 63 17.2 32 32 NNW 14 22 29.95 1014 10 16 0.00 0.00
4:53 pm 16:53 Sunny 97 36.1 61 16.1 30 30 WNW 9 15 29.93 1014 10 16 0.00 0.00
5:53 pm 17:53 Sunny 97 36.1 61 16.1 30 30 NW 10 17 29.91 1013 10 16 0.00 0.00
6:53 pm 18:53 Sunny 96 35.6 65 18.3 36 36 NW 10 17 29.90 1013 10 16 0.00 0.00
7:53 pm 19:53 Sunny 93 33.9 65 18.3 40 40 NNW 8 13 29.90 1013 10 16 0.00 0.00
8:53 pm 20:53 Clear 90 32.2 64 17.8 42 42 NW 8 13 29.88 1012 10 16 0.00 0.00
9:53 pm 21:53 Clear 88 31.1 65 18.3 46 46 NW 6 9 29.90 1012 10 16 0.00 0.00
10:53 pm 22:53 Clear 86 30 67 19.4 53 53 NW 8 13 29.90 1013 10 16 0.00 0.00
11:53 pm 23:53 Clear 85 29.4 67 19.4 55 55 NW 7 11 29.90 1013 10 16 0.00 0.00

Powered by AerisWeather